• MPC Preparation (Info)

  • MPEC 2016-O45 : 2014 GT53

    The following Minor Planet Electronic Circular may be linked-to from your own Web pages, but must not otherwise be redistributed electronically.

    A form allowing access to any MPEC is at the bottom of this page.


    Read MPEC 2016-O44 Read MPEC 2016-O46


    M.P.E.C. 2016-O45                                Issued 2016 July 16, 21:14 UT
    
         The Minor Planet Electronic Circulars contain information on unusual
             minor planets and routine data on comets.  They are published
        on behalf of Division F of the International Astronomical Union by the
              Minor Planet Center, Smithsonian Astrophysical Observatory,
                              Cambridge, MA 02138, U.S.A.
    
                 Prepared using the Tamkin Foundation Computer Network
    
                                  MPC@CFA.HARVARD.EDU
                URL https://www.minorplanetcenter.net/    ISSN 1523-6714
    
                                       2014 GT53
    
    Observations:
         K14G53T  C2012 04 15.42901 14 39 11.626-17 30 23.21         22.3 wLEO045F51
         K14G53T  C2012 04 15.44289 14 39 11.573-17 30 22.65         22.3 wLEO045F51
         K14G53T  C2012 04 15.45675 14 39 11.508-17 30 22.47         22.1 wLEO045F51
         K14G53T  C2012 04 15.47067 14 39 11.449-17 30 22.57         22.0 wLEO045F51
         K14G53T  C2012 05 17.36771 14 36 50.552-17 20 55.17         22.1 wLEO045F51
         K14G53T  C2012 05 17.39590 14 36 50.420-17 20 54.61         22.2 wLEO045F51
         K14G53T  C2012 05 17.40999 14 36 50.344-17 20 54.30         22.1 wLEO045F51
         K14G53T  C2013 04 12.49833 14 43 40.574-18 05 49.26         22.3 wLEO045F51
         K14G53T  C2013 04 12.51219 14 43 40.507-18 05 49.37         22.0 wLEO045F51
         K14G53T  C2013 04 12.52607 14 43 40.412-18 05 48.66         22.1 wLEO045F51
         K14G53T  C2013 04 12.53991 14 43 40.388-18 05 48.78         22.2 wLEO045F51
         K14G53T* C2014 04 05.48048 14 48 28.168-18 41 50.79         22.2 wLEO045F51
         K14G53T  C2014 04 05.49235 14 48 28.105-18 41 50.70         22.3 wLEO045F51
         K14G53T  C2014 04 05.50426 14 48 28.070-18 41 50.49         22.3 wLEO045F51
         K14G53T  C2014 04 05.51615 14 48 28.023-18 41 50.33         22.4 wLEO045F51
         K14G53T  C2014 04 29.40818 14 46 46.225-18 35 47.62         22.0 wLEO045F51
         K14G53T  C2014 04 29.41877 14 46 46.167-18 35 47.48         22.1 wLEO045F51
         K14G53T  C2014 04 29.42935 14 46 46.126-18 35 47.28         22.3 wLEO045F51
         K14G53T  C2014 04 29.43994 14 46 46.106-18 35 47.27         22.2 wLEO045F51
         K14G53T  C2014 05 23.31851 14 44 59.475-18 28 46.08         22.2 wLEO045F51
         K14G53T  C2014 05 23.32979 14 44 59.424-18 28 45.88         22.0 wLEO045F51
         K14G53T  C2014 05 23.34105 14 44 59.382-18 28 45.80         22.3 wLEO045F51
         K14G53T  C2014 05 23.35235 14 44 59.347-18 28 45.48         22.2 wLEO045F51
         K14G53T  C2015 04 23.44860 14 51 35.690-19 11 48.43         22.3 wLEO045F51
         K14G53T  C2015 04 23.46015 14 51 35.618-19 11 47.84         22.3 wLEO045F51
         K14G53T  C2015 04 23.47166 14 51 35.567-19 11 47.64         22.1 wLEO045F51
         K14G53T  C2015 04 23.48321 14 51 35.518-19 11 47.54         22.1 wLEO045F51
         K14G53T  C2015 05 19.38366 14 49 38.471-19 04 26.35         22.1 wLEO045F51
         K14G53T  C2015 05 19.39593 14 49 38.434-19 04 26.27         22.1 wLEO045F51
         K14G53T  C2015 05 19.40821 14 49 38.366-19 04 26.40         22.1 wLEO045F51
    
    Observer details:
    F51 Pan-STARRS 1, Haleakala.  Observers B. Gibson, T. Goggia, N. Primak,
        A. Schultz, M. Willman.  Measurers K. Chambers, S. Chastel, Y.-T. Chen,
        L. Denneau, H. Flewelling, M. Holman, M. Huber, R. Jedicke, M. Lackner,
        E. Lilly, H.-W. Lin, E. Magnier, M. Micheli, M. Payne, P. Veres,
        R. Wainscoat, C. Waters, R. Weryk.  1.8-m Ritchey-Chretien + CCD.
    
    Orbital elements:
    2014 GT53
    Epoch 2016 July 31.0 TT = JDT 2457600.5                 MPC
    M 284.16093              (2000.0)            P               Q
    n   0.00310897     Peri.  281.02483     +0.69233815     +0.71208703
    a  46.4934037      Node    33.76296     -0.55256011     +0.62714106
    e   0.0995130      Incl.   12.11281     -0.46405303     +0.31563611
    P 317              H    5.4           G   0.15           U   2
    Residuals in seconds of arc
    120415 F51  0.1-  0.1-    130412 F51  0.0   0.2-    140523 F51  0.1-  0.1+
    120415 F51  0.0   0.2+    140405 F51  0.2+  0.1+    140523 F51  0.0   0.0
    120415 F51  0.1-  0.2+    140405 F51  0.1-  0.1+    140523 F51  0.2+  0.1+
    120415 F51  0.0   0.2-    140405 F51  0.1+  0.1+    150423 F51  0.2+  0.4-
    120517 F51  0.2+  0.1-    140405 F51  0.1+  0.1+    150423 F51  0.1-  0.0
    120517 F51  0.1+  0.0     140429 F51  0.0   0.0     150423 F51  0.1-  0.0
    120517 F51  0.1-  0.0     140429 F51  0.2-  0.0     150423 F51  0.1-  0.1-
    130412 F51  0.2+  0.0     140429 F51  0.1-  0.0     150519 F51  0.1-  0.3+
    130412 F51  0.1+  0.3-    140429 F51  0.4+  0.2-    150519 F51  0.1+  0.2+
    130412 F51  0.5-  0.2+    140523 F51  0.1-  0.1+    150519 F51  0.1-  0.2-
    
    Ephemeris:
    2014 GT53                a,e,i = 46.49, 0.10, 12                 q = 41.867
    Date    TT    R. A. (2000) Decl.     Delta      r     Elong.  Phase     V
    2016 06 16    14 52 09.2 -19 30 58  45.0227 45.8192   141.2     0.8    22.1
    ...
    2016 07 01    14 51 26.3 -19 27 46  45.1993 45.8154   126.8     1.0    22.1
    ...
    2016 07 09    14 51 09.8 -19 26 28  45.3103 45.8134   119.1     1.1    22.2
    ...
    2016 07 15    14 51 00.8 -19 25 42  45.3994 45.8119   113.4     1.2    22.2
    2016 07 16    14 50 59.6 -19 25 36  45.4147 45.8116   112.4     1.2    22.2
    2016 07 17    14 50 58.5 -19 25 29  45.4301 45.8114   111.4     1.2    22.2
    ...
    2016 07 23    14 50 53.4 -19 24 59  45.5245 45.8098   105.7     1.2    22.2
    ...
    2016 07 31    14 50 51.5 -19 24 39  45.6545 45.8078    98.1     1.3    22.2
    ...
    2016 08 15    14 51 02.8 -19 25 04  45.9034 45.8040    83.7     1.3    22.2
    
    A. U. Tomatic                (C) Copyright 2016 MPC           M.P.E.C. 2016-O45
    

    Read MPEC 2016-O44 Read MPEC 2016-O46


    MPEC number:

    Enter an MPEC number in one of the following forms:

    • 1997-B01 (the full form)
    • J97B01 (the packed version of the full form)
    • B01 (the abbreviated form)